Location: Asheville, NC
(35.6000°N, 82.5500°W)
Time: 05:05:08
(UTC-04:00)

SEEDS - Pass Details

Date: 05 January 2018
Orbit: 587 x 605 km, 97.5° (Epoch: 22 April)

Event Time Altitude Azimuth Distance (km) Brightness Sun altitude
Rises 06:53:56 0° 29° (NNE) 2,832 ? -9.4°
Reaches altitude 10° 06:56:37 10° 47° (NE) 1,923 ? -8.9°
Maximum altitude 06:59:40 20° 94° (E) 1,397 ? -8.3°
Drops below altitude 10° 07:02:41 10° 142° (SE) 1,906 ? -7.8°
Sets 07:05:19 0° 159° (SSE) 2,799 ? -7.3°
